Prairie Du Chien, WI

1:50 PM CDT on July 27, 2017 (GMT -0500)
Prairie Du Chien Municipal

Weather History for KPDC - January, 2013

Change the Weather History Date:

Saturday, January 19, 2013

  Actual Average Record
Temperature  
Mean Temperature 30 °F -  
Max Temperature 48 °F 30 °F 50 °F (1981)
Min Temperature 12 °F 8 °F -25 °F (1970)
Degree Days  
Heating Degree Days 35    
Moisture  
Dew Point 25 °F    
Average Humidity 66    
Maximum Humidity 87    
Minimum Humidity 51    
Precipitation  
Precipitation 0.00 in - - ()
Sea Level Pressure  
Sea Level Pressure 29.83 in    
Wind  
Wind Speed 9 mph (WSW)    
Max Wind Speed 36 mph    
Max Gust Speed 58 mph    
Visibility 9 miles    
Events      
Averages and records for this station are not official NWS values.
T = Trace of Precipitation, MM = Missing Value Source: NWS Daily Summary

Daily Weather History Graph

Daily Weather History Graph

Search for Another Location

Airport or City:

Trip Planner

Search our weather history database for the weather conditions in past years. The results will help you decide how hot, cold, wet, or windy it might be!

Date:

Astronomy

Jan. 19, 2013 Rise Set
Actual Time 7:30 AM CST 5:00 PM CST
Civil Twilight 6:59 AM CST 5:31 PM CST
Nautical Twilight 6:24 AM CST 6:06 PM CST
Astronomical Twilight 5:50 AM CST 6:40 PM CST
Moon 11:28 AM CST (1/19) 1:02 AM CST (1/19)
Length of Visible Light 10h 32m
Length of Day
9h 29m
First Quarter, 57% of the Moon is Illuminated
Jan 19
First Quarter
Jan 26
Full
Feb 3
Last Quarter
Feb 10
New
Feb 17
First Quarter

Hourly Weather History & Observations

Time (CST) Temp. Windchill Dew Point Humidity Pressure Visibility Wind Dir Wind Speed Gust Speed Precip Events Conditions
12:15 AM 37.4 °F - 30.2 °F 75% 29.84 in 10.0 mi Calm Calm - N/A   Clear
12:35 AM 37.4 °F 33.8 °F 30.2 °F 75% 29.84 in 10.0 mi SW 4.6 mph - N/A   Clear
12:55 AM 35.6 °F 32.8 °F 30.2 °F 81% 29.84 in 10.0 mi SW 3.5 mph - N/A   Clear
1:15 AM 35.6 °F 31.7 °F 30.2 °F 81% 29.84 in 10.0 mi SSW 4.6 mph - N/A   Clear
1:35 AM 37.4 °F 33.8 °F 30.2 °F 75% 29.84 in 10.0 mi SW 4.6 mph - N/A   Clear
1:55 AM 37.4 °F 33.8 °F 30.2 °F 75% 29.84 in 10.0 mi SW 4.6 mph - N/A   Clear
2:15 AM 37.4 °F 33.8 °F 30.2 °F 75% 29.84 in 10.0 mi SW 4.6 mph - N/A   Clear
2:35 AM 37.4 °F 32.1 °F 30.2 °F 75% 29.84 in 10.0 mi SW 6.9 mph - N/A   Scattered Clouds
2:55 AM 37.4 °F 33.8 °F 30.2 °F 75% 29.83 in 10.0 mi SSW 4.6 mph - N/A   Mostly Cloudy
3:15 AM 37.4 °F - 30.2 °F 75% 29.83 in 10.0 mi Calm Calm - N/A   Overcast
3:35 AM 35.6 °F - 30.2 °F 81% 29.82 in 10.0 mi Calm Calm - N/A   Mostly Cloudy
3:55 AM 35.6 °F - 30.2 °F 81% 29.82 in 10.0 mi Calm Calm - N/A   Scattered Clouds
4:35 AM 35.6 °F - 30.2 °F 81% 29.81 in 10.0 mi Calm Calm - N/A   Overcast
4:55 AM 33.8 °F - 30.2 °F 87% 29.79 in 10.0 mi Calm Calm - N/A   Overcast
5:15 AM 35.6 °F - 30.2 °F 81% 29.79 in 10.0 mi Calm Calm - N/A   Overcast
5:35 AM 33.8 °F - 30.2 °F 87% 29.79 in 10.0 mi Calm Calm - N/A   Scattered Clouds
5:55 AM 33.8 °F - 30.2 °F 87% 29.79 in 10.0 mi Calm Calm - N/A   Scattered Clouds
7:15 AM 35.6 °F - 30.2 °F 81% 29.78 in 10.0 mi Calm Calm - N/A   Overcast
7:55 AM 37.4 °F 34.9 °F 30.2 °F 75% 29.76 in 10.0 mi SSE 3.5 mph - N/A   Overcast
8:15 AM 37.4 °F - 30.2 °F 75% 29.77 in 10.0 mi Calm Calm - N/A   Overcast
8:35 AM 37.4 °F 33.8 °F 30.2 °F 75% 29.76 in 10.0 mi South 4.6 mph - N/A   Mostly Cloudy
9:35 AM 37.4 °F 33.8 °F 30.2 °F 75% 29.77 in 10.0 mi SSW 4.6 mph - N/A   Overcast
9:55 AM 39.2 °F 37.0 °F 32.0 °F 75% 29.79 in 10.0 mi SSW 3.5 mph - N/A   Mostly Cloudy
10:15 AM 39.2 °F 37.0 °F 32.0 °F 75% 29.77 in 10.0 mi South 3.5 mph - N/A   Mostly Cloudy
10:35 AM 41.0 °F 37.1 °F 32.0 °F 70% 29.76 in 10.0 mi SW 5.8 mph - N/A   Scattered Clouds
10:55 AM 41.0 °F 37.1 °F 30.2 °F 65% 29.75 in 10.0 mi SW 5.8 mph - N/A   Scattered Clouds
11:15 AM 42.8 °F 37.5 °F 32.0 °F 66% 29.76 in 10.0 mi WSW 9.2 mph - N/A   Clear
11:35 AM 44.6 °F 39.7 °F 30.2 °F 57% 29.75 in 10.0 mi WSW 9.2 mph - N/A   Clear
11:55 AM 44.6 °F 39.7 °F 32.0 °F 61% 29.74 in 10.0 mi WSW 9.2 mph - N/A   Clear
12:15 PM 44.6 °F 40.2 °F 32.0 °F 61% 29.73 in 10.0 mi WSW 8.1 mph - N/A   Clear
12:35 PM 46.4 °F 42.9 °F 32.0 °F 57% 29.72 in 10.0 mi WSW 6.9 mph - N/A   Clear
12:55 PM 46.4 °F 42.4 °F 32.0 °F 57% 29.71 in 10.0 mi WSW 8.1 mph - N/A   Clear
1:35 PM 48.2 °F - 32.0 °F 54% 29.72 in 10.0 mi West 16.1 mph 24.2 mph N/A   Scattered Clouds
1:55 PM 48.2 °F - 32.0 °F 54% 29.73 in 10.0 mi West 13.8 mph 20.7 mph N/A   Clear
2:15 PM 48.2 °F - 32.0 °F 54% 29.71 in 10.0 mi West 12.7 mph 17.3 mph N/A   Clear
2:35 PM 48.2 °F - 32.0 °F 54% 29.72 in 10.0 mi West 15.0 mph 20.7 mph N/A   Mostly Cloudy
2:55 PM 48.2 °F - 32.0 °F 54% 29.73 in 10.0 mi West 16.1 mph 21.9 mph N/A   Overcast
3:15 PM 46.4 °F 37.9 °F 32.0 °F 57% 29.74 in 10.0 mi West 25.3 mph 34.5 mph N/A   Overcast
3:35 PM 46.4 °F 39.8 °F 32.0 °F 57% 29.76 in 10.0 mi West 16.1 mph 23.0 mph N/A   Overcast
3:55 PM 44.6 °F 36.9 °F 32.0 °F 61% 29.77 in 10.0 mi West 18.4 mph 31.1 mph N/A   Scattered Clouds
4:15 PM 44.6 °F 36.1 °F 30.2 °F 57% 29.77 in 10.0 mi West 21.9 mph 27.6 mph N/A   Scattered Clouds
4:35 PM 42.8 °F 33.3 °F 30.2 °F 61% 29.78 in 10.0 mi West 24.2 mph 29.9 mph N/A   Mostly Cloudy
4:55 PM 42.8 °F 35.4 °F 30.2 °F 61% 29.79 in 10.0 mi West 15.0 mph 23.0 mph N/A   Mostly Cloudy
5:15 PM 41.0 °F 31.1 °F 28.4 °F 61% 29.80 in 10.0 mi West 23.0 mph 32.2 mph N/A   Overcast
5:35 PM 41.0 °F 33.9 °F 30.2 °F 65% 29.82 in 10.0 mi West 12.7 mph 24.2 mph N/A   Overcast
5:55 PM 41.0 °F 30.5 °F 28.4 °F 61% 29.83 in 10.0 mi WNW 26.5 mph 33.4 mph N/A   Overcast
6:15 PM 37.4 °F 24.2 °F 24.8 °F 60% 29.84 in 7.0 mi West 34.5 mph 50.6 mph N/A   Overcast
6:35 PM 35.6 °F 22.1 °F 23.0 °F 60% 29.86 in 10.0 mi WNW 32.2 mph 41.4 mph N/A   Mostly Cloudy
6:55 PM 32.0 °F 16.7 °F 17.6 °F 55% 29.89 in 10.0 mi West 34.5 mph 51.8 mph N/A   Scattered Clouds
7:15 PM 28.4 °F 12.0 °F 12.2 °F 51% 29.92 in 5.0 mi WNW 33.4 mph 47.2 mph N/A   Haze
7:35 PM 24.8 °F 6.6 °F 10.4 °F 54% 29.94 in 5.0 mi WNW 35.7 mph 43.7 mph N/A   Haze
7:55 PM 23.0 °F 5.1 °F 8.6 °F 54% 29.96 in 3.0 mi WNW 31.1 mph 57.5 mph N/A   Haze
8:15 PM 23.0 °F 8.3 °F 10.4 °F 59% 29.97 in 10.0 mi West 19.6 mph 41.4 mph N/A   Clear
8:35 PM 23.0 °F 6.6 °F 8.6 °F 54% 29.98 in 7.0 mi WNW 25.3 mph 35.7 mph N/A   Scattered Clouds
8:55 PM 19.4 °F 1.8 °F 5.0 °F 54% 30.00 in 7.0 mi West 25.3 mph 40.3 mph N/A   Scattered Clouds
9:15 PM 19.4 °F 2.1 °F 5.0 °F 54% 30.02 in 7.0 mi WNW 24.2 mph 36.8 mph N/A   Scattered Clouds
10:15 PM 15.8 °F -1.9 °F 3.2 °F 58% 30.06 in 7.0 mi WNW 21.9 mph 38.0 mph N/A   Scattered Clouds
10:35 PM 15.8 °F -3.4 °F 1.4 °F 53% 30.08 in 7.0 mi WNW 26.5 mph 34.5 mph N/A   Scattered Clouds
11:15 PM 14.0 °F -5.8 °F -0.4 °F 53% 30.11 in 7.0 mi WNW 26.5 mph 35.7 mph N/A   Scattered Clouds
11:35 PM 12.2 °F -6.3 °F -0.4 °F 57% 30.12 in 7.0 mi WNW 20.7 mph 34.5 mph N/A   Scattered Clouds
11:55 PM 12.2 °F -5.8 °F -0.4 °F 57% 30.13 in 10.0 mi NW 19.6 mph 27.6 mph N/A   Clear